Starlink 5123

operational
NORAD ID: 53979 Int'l Des: 2022-125 Owner: SPXS Country: US Constellation: starlink
LEOCIRCULAR

About Starlink 5123

Description loading...

Live Position

Loading 3D Globe...

Upcoming Passes

Altitude History

Altitude vs Time

uPlot chart will show altitude changes over time

Two-Line Element Set

1 53979U 22125R 25304.79494319 .00000976 00000-0 79346-4 0 9990
2 53979 53.2173 77.7458 0001249 90.2455 269.8681 15.08850963169938
Epoch: Oct 31, 2025 • Age: 5 hours

Current Status

Altitude 539.6 km
Velocity 7.60 km/s
Sub-Earth Point 16.87°N, 165.09°W
Launch Date Oct 5, 2022
Age 3 years
Type internet

Technical Details

Classification Payload
Mass 305.00 kg
Dry Mass 290.00 kg
Total Mass 305.00 kg
Length 0.20 m
Diameter 2.80 m
Span 9.00 m
Shape Box + pan
Manufacturer SPXS
Bus Type Starlink
Phase Status In Orbit
Owner/State SPXS/US

Large Constellations

Loading constellations...